Location: Camoruquito
(9.9001°N, 67.3564°W)
Time: 13:40:39
(UTC+00:00)

Ariane H10+ - Pass Details

Date: 14 April 2024
Orbit: 300 x 22301 km, 6.5° (Epoch: 27 May)

Event Time Altitude Azimuth Distance (km) Brightness Sun altitude
Exits shadow 09:42:14 10° 229° (SW) 1,754 3.9 -9.8°
Reaches altitude 10° 09:42:19 10° 228° (SW) 1,720 3.8 -9.8°
Maximum altitude 09:43:39 12° 204° (SSW) 1,358 3.5 -9.5°
Drops below altitude 10° 09:44:42 10° 178° (S) 1,299 3.6 -9.2°
Sets 09:47:07 0° 135° (SE) 1,964 5.2 -8.6°
